Time,TemperatureF,DewpointF,PressureIn,WindDirection,WindDirectionDegrees,WindSpeedMPH,WindSpeedGustMPH,Humidity,HourlyPrecipIn,Conditions,Clouds,dailyrainin,SoftwareType,DateUTC
2013-06-13 08:54:00,60.6,60.0,29.48,WSW,244,0.0,-999.0,97,-99.99,,,0.00,weatherlink.com 1.10,2013-06-13 12:54:00,
2013-06-13 09:08:00,60.5,60.0,29.48,NNE,24,0.0,-999.0,97,-99.99,,,0.03,weatherlink.com 1.10,2013-06-13 13:08:00,
2013-06-13 09:23:00,60.4,60.0,29.48,ESE,121,0.0,-999.0,97,-99.99,,,0.07,weatherlink.com 1.10,2013-06-13 13:23:00,
2013-06-13 09:38:00,60.2,59.0,29.48,NE,36,0.0,-999.0,97,-99.99,,,0.17,weatherlink.com 1.10,2013-06-13 13:38:00,
2013-06-13 09:57:00,60.0,59.0,29.47,SE,140,0.0,-999.0,97,-99.99,,,0.23,weatherlink.com 1.10,2013-06-13 13:57:00,
2013-06-13 10:09:00,59.9,59.0,29.47,NE,38,1.0,-999.0,97,-99.99,,,0.34,weatherlink.com 1.10,2013-06-13 14:09:00,
2013-06-13 10:23:00,59.8,59.0,29.47,East,90,0.0,-999.0,97,-99.99,,,0.41,weatherlink.com 1.10,2013-06-13 14:23:00,
2013-06-13 10:39:00,59.8,59.0,29.47,NNW,336,1.0,-999.0,97,-99.99,,,0.43,weatherlink.com 1.10,2013-06-13 14:39:00,
2013-06-13 10:53:00,59.6,59.0,29.47,SE,141,0.0,-999.0,97,-99.99,,,0.43,weatherlink.com 1.10,2013-06-13 14:53:00,
2013-06-13 11:08:00,59.5,59.0,29.47,NNE,18,0.0,-999.0,97,-99.99,,,0.44,weatherlink.com 1.10,2013-06-13 15:08:00,
2013-06-13 11:23:00,59.7,59.0,29.46,NNW,331,0.0,-999.0,98,-99.99,,,0.44,weatherlink.com 1.10,2013-06-13 15:23:00,
2013-06-13 11:38:00,59.8,59.0,29.47,North,355,0.0,-999.0,98,-99.99,,,0.45,weatherlink.com 1.10,2013-06-13 15:38:00,
2013-06-13 11:53:00,59.9,59.0,29.47,NNE,23,1.0,-999.0,98,-99.99,,,0.46,weatherlink.com 1.10,2013-06-13 15:53:00,
2013-06-13 12:08:00,60.0,60.0,29.47,NNE,20,2.0,-999.0,98,-99.99,,,0.47,weatherlink.com 1.10,2013-06-13 16:08:00,
2013-06-13 12:23:00,59.8,59.0,29.48,North,9,1.0,-999.0,98,-99.99,,,0.48,weatherlink.com 1.10,2013-06-13 16:23:00,
2013-06-13 12:38:00,59.5,59.0,29.49,North,355,3.0,-999.0,98,-99.99,,,0.49,weatherlink.com 1.10,2013-06-13 16:38:00,
2013-06-13 12:53:00,59.1,59.0,29.49,North,349,10.0,-999.0,98,-99.99,,,0.51,weatherlink.com 1.10,2013-06-13 16:53:00,
2013-06-13 13:08:00,59.4,59.0,29.48,North,351,2.0,-999.0,98,-99.99,,,0.52,weatherlink.com 1.10,2013-06-13 17:08:00,
2013-06-13 13:23:00,59.0,59.0,29.49,North,351,5.0,-999.0,98,-99.99,,,0.52,weatherlink.com 1.10,2013-06-13 17:23:00,
2013-06-13 13:39:00,58.6,58.0,29.50,NNW,329,1.0,-999.0,98,-99.99,,,0.52,weatherlink.com 1.10,2013-06-13 17:39:00,
2013-06-13 13:53:00,58.6,58.0,29.50,North,360,4.0,-999.0,98,-99.99,,,0.52,weatherlink.com 1.10,2013-06-13 17:53:00,
2013-06-13 14:09:00,58.3,58.0,29.52,NNW,336,3.0,-999.0,98,-99.99,,,0.52,weatherlink.com 1.10,2013-06-13 18:09:00,
2013-06-13 14:23:00,58.3,58.0,29.52,NW,324,4.0,-999.0,98,-99.99,,,0.52,weatherlink.com 1.10,2013-06-13 18:23:00,
2013-06-13 14:38:00,58.3,58.0,29.53,NNE,25,4.0,-999.0,98,-99.99,,,0.52,weatherlink.com 1.10,2013-06-13 18:38:00,
2013-06-13 14:54:00,58.4,58.0,29.55,NNW,345,0.0,-999.0,98,-99.99,,,0.52,weatherlink.com 1.10,2013-06-13 18:54:00,
2013-06-13 15:09:00,58.3,58.0,29.55,NW,310,7.0,-999.0,98,-99.99,,,0.52,weatherlink.com 1.10,2013-06-13 19:09:00,
2013-06-13 15:24:00,58.3,58.0,29.56,NNE,27,0.0,-999.0,98,-99.99,,,0.52,weatherlink.com 1.10,2013-06-13 19:24:00,
2013-06-13 15:39:00,58.1,57.0,29.59,WNW,288,0.0,-999.0,97,-99.99,,,0.52,weatherlink.com 1.10,2013-06-13 19:39:00,
2013-06-13 15:54:00,58.2,57.0,29.58,ENE,59,0.0,-999.0,97,-99.99,,,0.52,weatherlink.com 1.10,2013-06-13 19:54:00,
2013-06-13 16:09:00,58.2,58.0,29.59,North,360,0.0,-999.0,98,-99.99,,,0.52,weatherlink.com 1.10,2013-06-13 20:09:00,
2013-06-13 16:24:00,58.2,57.0,29.61,NNW,333,1.0,-999.0,97,-99.99,,,0.52,weatherlink.com 1.10,2013-06-13 20:24:00,
2013-06-13 16:39:00,58.1,57.0,29.62,NNE,16,3.0,-999.0,97,-99.99,,,0.52,weatherlink.com 1.10,2013-06-13 20:39:00,
2013-06-13 16:53:00,56.9,56.0,29.63,North,350,1.0,-999.0,97,-99.99,,,0.52,weatherlink.com 1.10,2013-06-13 20:53:00,
2013-06-13 17:08:00,56.2,55.0,29.64,NNW,329,7.0,-999.0,97,-99.99,,,0.52,weatherlink.com 1.10,2013-06-13 21:08:00,
2013-06-13 17:23:00,55.9,55.0,29.64,NNW,345,1.0,-999.0,97,-99.99,,,0.52,weatherlink.com 1.10,2013-06-13 21:23:00,
2013-06-13 17:38:00,56.3,56.0,29.65,North,355,5.0,-999.0,97,-99.99,,,0.52,weatherlink.com 1.10,2013-06-13 21:38:00,
2013-06-13 17:53:00,56.8,56.0,29.66,SE,129,1.0,-999.0,97,-99.99,,,0.52,weatherlink.com 1.10,2013-06-13 21:53:00,
2013-06-13 18:08:00,57.3,57.0,29.66,NNE,30,0.0,-999.0,97,-99.99,,,0.52,weatherlink.com 1.10,2013-06-13 22:08:00,
2013-06-13 18:23:00,58.0,57.0,29.66,NNE,15,1.0,-999.0,97,-99.99,,,0.52,weatherlink.com 1.10,2013-06-13 22:23:00,
2013-06-13 18:38:00,58.6,58.0,29.67,NE,53,1.0,-999.0,96,-99.99,,,0.52,weatherlink.com 1.10,2013-06-13 22:38:00,
2013-06-13 18:53:00,59.0,58.0,29.68,NE,49,0.0,-999.0,96,-99.99,,,0.52,weatherlink.com 1.10,2013-06-13 22:53:00,
2013-06-13 19:08:00,59.5,58.0,29.68,NNE,27,5.0,-999.0,94,-99.99,,,0.52,weatherlink.com 1.10,2013-06-13 23:08:00,
2013-06-13 19:23:00,59.6,58.0,29.69,ESE,108,0.0,-999.0,93,-99.99,,,0.52,weatherlink.com 1.10,2013-06-13 23:23:00,
2013-06-13 19:38:00,59.7,57.0,29.70,NE,34,0.0,-999.0,92,-99.99,,,0.52,weatherlink.com 1.10,2013-06-13 23:38:00,
2013-06-13 19:53:00,59.5,57.0,29.71,North,355,4.0,-999.0,91,-99.99,,,0.52,weatherlink.com 1.10,2013-06-13 23:53:00,
2013-06-13 20:08:00,59.4,57.0,29.71,NNE,25,0.0,-999.0,91,-99.99,,,0.52,weatherlink.com 1.10,2013-06-14 00:08:00,
2013-06-13 20:23:00,59.1,57.0,29.72,NW,325,0.0,-999.0,91,-99.99,,,0.52,weatherlink.com 1.10,2013-06-14 00:23:00,
2013-06-13 20:38:00,59.0,56.0,29.73,North,11,0.0,-999.0,91,-99.99,,,0.52,weatherlink.com 1.10,2013-06-14 00:38:00,
2013-06-13 20:53:00,58.9,56.0,29.74,North,360,0.0,-999.0,91,-99.99,,,0.52,weatherlink.com 1.10,2013-06-14 00:53:00,
2013-06-13 21:08:00,58.5,56.0,29.74,North,360,0.0,-999.0,91,-99.99,,,0.52,weatherlink.com 1.10,2013-06-14 01:08:00,
2013-06-13 21:23:00,58.0,56.0,29.74,North,360,0.0,-999.0,92,-99.99,,,0.53,weatherlink.com 1.10,2013-06-14 01:23:00,
2013-06-13 21:38:00,57.5,55.0,29.74,North,360,0.0,-999.0,92,-99.99,,,0.53,weatherlink.com 1.10,2013-06-14 01:38:00,
2013-06-13 21:53:00,57.0,55.0,29.75,North,360,0.0,-999.0,92,-99.99,,,0.53,weatherlink.com 1.10,2013-06-14 01:53:00,
2013-06-13 22:08:00,56.5,55.0,29.75,North,360,0.0,-999.0,93,-99.99,,,0.53,weatherlink.com 1.10,2013-06-14 02:08:00,
2013-06-13 22:23:00,56.2,54.0,29.75,North,360,0.0,-999.0,93,-99.99,,,0.53,weatherlink.com 1.10,2013-06-14 02:23:00,
2013-06-13 22:38:00,55.8,54.0,29.76,North,360,0.0,-999.0,93,-99.99,,,0.53,weatherlink.com 1.10,2013-06-14 02:38:00,
2013-06-13 22:53:00,55.5,54.0,29.76,North,360,0.0,-999.0,94,-99.99,,,0.53,weatherlink.com 1.10,2013-06-14 02:53:00,
2013-06-13 23:08:00,55.2,54.0,29.75,North,360,0.0,-999.0,94,-99.99,,,0.53,weatherlink.com 1.10,2013-06-14 03:08:00,
2013-06-13 23:23:00,54.9,53.0,29.76,North,360,0.0,-999.0,94,-99.99,,,0.53,weatherlink.com 1.10,2013-06-14 03:23:00,
2013-06-13 23:38:00,54.6,53.0,29.76,North,360,0.0,-999.0,94,-99.99,,,0.53,weatherlink.com 1.10,2013-06-14 03:38:00,
2013-06-13 23:53:00,54.4,53.0,29.76,North,360,0.0,-999.0,95,-99.99,,,0.53,weatherlink.com 1.10,2013-06-14 03:53:00,